Volver al catálogo

SL-16 DEB

ActivoVLEO
NORAD 29094·DEBRIS·🇷🇺 Russia

Lanzado Dec 25, 1992 desde Baikonur Cosmodrome

Loading…

Próximos Pases (próximas 24 horas)

TLE

EnvejeciendoSource: Space-Track

Época: Sep 13, 2026, 09:41 UTC

1 29094U 92093JQ  26256.40402387  .00045499  00000-0  27028-2 0  9998
2 29094  71.2483 269.6595 0020866 148.2486 211.9952 15.10886706245583

Sigue SL-16 DEB en tiempo real con AllMySat

Download on the App Store